Location: Cahas Mountain Overlook
(37.0833°N, 80.1000°W)
Time: 01:25:34
(UTC-05:00)

A-11 Canister half - Pass Details

Date: 03 December 2023
Orbit: 1512 x 1687 km, 47.2° (Epoch: 01 March)

Event Time Altitude Azimuth Distance (km) Brightness Sun altitude
Exits shadow 03:49:55 46° 12° (NNE) 2,116 9.6 -40.6°
Drops below altitude 10° 03:58:40 10° 70° (ENE) 3,941 11.8 -38.9°
Sets 04:02:04 0° 77° (ENE) 4,938 12.5 -38.2°
